Date,TemperatureHighF,TemperatureAvgF,TemperatureLowF,DewpointHighF,DewpointAvgF,DewpointLowF,HumidityHigh,HumidityAvg,HumidityLow,PressureMaxIn,PressureMinIn,WindSpeedMaxMPH,WindSpeedAvgMPH,GustSpeedMaxMPH,PrecipitationSumIn
2013-2-1,18.0,5.2,3.0,11.0,-1.0,-3.0,80,75,71,30.41,30.16,11,7,23,0.00
2013-2-2,27.0,21.2,13.0,24.0,17.2,8.0,91,85,73,30.25,29.99,8,5,17,0.00
2013-2-3,24.0,17.2,8.0,19.0,12.9,5.0,90,83,73,30.09,29.98,9,2,22,0.00
2013-2-4,39.0,28.6,22.0,30.0,22.2,16.0,83,77,68,30.08,29.79,9,4,14,0.00
2013-2-5,35.0,28.4,20.0,32.0,24.5,19.0,94,85,73,30.05,29.83,11,3,20,0.00
2013-2-6,38.0,31.9,29.0,28.0,25.1,22.0,86,76,65,30.27,30.05,6,3,15,0.00
2013-2-7,53.0,39.6,31.0,42.0,33.6,27.0,95,80,60,30.17,29.81,8,3,17,0.10
2013-2-8,36.0,31.9,29.0,34.0,28.8,25.0,95,88,84,30.37,29.86,11,6,20,0.10
2013-2-9,41.0,32.6,27.0,29.0,25.9,23.0,89,76,63,30.40,30.13,7,3,14,0.00
2013-2-10,51.0,41.5,33.0,49.0,36.7,25.0,95,83,66,30.14,29.65,13,6,29,0.28
2013-2-11,52.0,40.8,35.0,49.0,32.4,25.0,90,72,65,29.91,29.64,14,9,32,0.10
2013-2-12,27.0,25.5,24.0,24.0,23.1,22.0,93,91,90,29.97,29.95,0,0,0,0.00
2013-2-13,47.0,36.6,23.0,34.0,29.1,22.0,95,76,55,29.96,29.76,6,2,17,0.00
2013-2-14,44.0,37.4,33.0,36.0,32.1,28.0,91,82,71,30.00,29.77,10,5,23,0.00
2013-2-15,34.0,30.1,24.0,30.0,24.4,16.0,95,80,53,30.18,29.98,9,3,16,0.00
2013-2-16,24.0,20.6,18.0,19.0,12.4,8.0,82,70,57,30.16,30.12,8,4,17,0.00
2013-2-17,32.0,21.3,8.0,17.0,9.2,4.0,86,61,34,30.24,30.10,7,2,11,0.00
2013-2-18,55.0,40.3,27.0,45.0,31.1,15.0,92,70,58,30.10,29.52,17,9,31,0.20
2013-2-19,46.0,23.1,18.0,44.0,17.9,10.0,93,80,69,30.15,29.52,15,9,29,0.22
2013-2-20,24.0,17.2,9.0,16.0,10.3,4.0,79,74,68,30.34,30.15,11,5,22,0.00
2013-2-21,28.0,24.3,16.0,24.0,18.7,12.0,91,79,75,30.35,29.99,9,3,18,0.00
2013-2-22,36.0,31.5,26.0,33.0,29.7,24.0,97,93,84,30.01,29.83,8,4,16,0.23
2013-2-23,30.0,27.3,25.0,25.0,22.0,20.0,88,81,72,30.00,29.95,7,3,15,0.02
2013-2-24,39.0,28.2,16.0,27.0,22.4,15.0,95,80,62,30.15,30.00,5,1,9,0.02
2013-2-25,43.0,33.2,22.0,31.0,26.4,20.0,94,77,59,30.16,29.90,8,3,18,0.01
2013-2-26,35.0,33.8,32.0,34.0,31.3,28.0,97,91,77,29.90,29.41,13,5,25,1.42
2013-2-27,34.0,32.2,31.0,33.0,30.6,29.0,98,95,91,29.69,29.47,6,3,15,0.08
2013-2-28,37.0,33.4,31.0,34.0,31.0,28.0,96,91,86,30.01,29.68,12,6,20,0.04